TITAN 4B R/B

Last updated on Mon Sep 21 2026 00:02:09 GMT+0000 (Coordinated Universal Time)

1 26474U 00047B 26263.61619094 .00001608 00000+0 10351-3 0 9996 2 26474 67.9870 211.8635 0041404 188.9926 171.0488 15.10625868422340
UTC large
Height (km)
Speed (km/s)
/
Latitude / Longitude
Inclination (degrees)
Orbital Period (minutes)
Azimuth
Elevation
Range (km)
Doppler Factor

Next 0 passes for location: London (51.5072 / 0.1276)

No passes found over London.
TITAN 4B R/B